Index of /ubuntu/dists

[ICO]NameLast modifiedSize

[PARENTDIR]Parent Directory  -
[DIR]jammy-proposed/2022-12-02 06:42 -
[DIR]kinetic-proposed/2022-12-02 06:42 -
[DIR]lunar-proposed/2022-12-02 06:41 -
[DIR]devel-proposed/2022-12-02 06:41 -
[DIR]lunar/2022-12-02 06:41 -
[DIR]devel/2022-12-02 06:41 -
[DIR]focal-proposed/2022-12-02 06:02 -
[DIR]xenial-backports/2022-12-02 05:41 -
[DIR]xenial-updates/2022-12-02 05:41 -
[DIR]xenial-security/2022-12-02 05:40 -
[DIR]bionic-backports/2022-12-02 05:39 -
[DIR]bionic-proposed/2022-12-02 05:39 -
[DIR]bionic-updates/2022-12-02 05:38 -
[DIR]bionic-security/2022-12-02 05:37 -
[DIR]focal-backports/2022-12-02 05:35 -
[DIR]focal-updates/2022-12-02 05:35 -
[DIR]focal-security/2022-12-02 05:34 -
[DIR]jammy-backports/2022-12-02 05:33 -
[DIR]jammy-updates/2022-12-02 05:33 -
[DIR]jammy-security/2022-12-02 05:32 -
[DIR]kinetic-backports/2022-12-02 05:32 -
[DIR]kinetic-updates/2022-12-02 05:32 -
[DIR]kinetic-security/2022-12-02 05:32 -
[DIR]lunar-updates/2022-11-29 17:45 -
[DIR]devel-updates/2022-11-29 17:45 -
[DIR]lunar-security/2022-11-29 17:45 -
[DIR]devel-security/2022-11-29 17:45 -
[DIR]lunar-backports/2022-11-29 15:39 -
[DIR]devel-backports/2022-11-29 15:39 -
[DIR]xenial-proposed/2022-11-25 09:13 -
[DIR]kinetic/2022-10-20 15:48 -
[DIR]jammy/2022-04-21 13:16 -
[DIR]trusty-proposed/2020-06-06 02:57 -
[DIR]trusty-updates/2020-05-29 04:08 -
[DIR]trusty-security/2020-05-29 04:06 -
[DIR]focal/2020-04-23 13:34 -
[DIR]bionic/2018-04-26 19:38 -
[DIR]trusty-backports/2017-12-15 04:49 -
[DIR]xenial/2016-04-21 03:43 -
[DIR]trusty/2015-10-07 07:44 -

Apache/2.4.6 (CentOS) OpenSSL/1.0.2k-fips PHP/5.4.16 Server at mirror.eu-lo.kamatera.com Port 80